カタログに戻る

STARLINK-34354

運用中通信VLEO
NORAD 64314·PAYLOAD·🇺🇸 United States

打ち上げ Jun 8, 2025 から Vandenberg Space Force Base

Loading…

次のパス (今後24時間)

TLE

最新Source: CelesTrak SupGP

元期: Sep 15, 2026, 02:28 UTC

1 64314C 25123Z   26258.10326389 -.00046433  00000+0 -16155-2 0  2585
2 64314  69.9998  75.4564 0003428 271.4754 192.1852 15.29597272    16

AllMySatでSTARLINK-34354をリアルタイム追跡

Download on the App Store